Location: Ivrea
(45.4365°N, 7.8791°E)
Time: 23:52:47
(UTC+02:00)

ARIANE 6 FM1 Upper Stage - Visible Passes

Search period start: 04 October 2024 00:00
Search period end: 14 October 2024 00:00
Orbit: 564 x 594 km, 62.0° (Epoch: 04 October)

Date Brightness Start Highest point End Pass type
(mag) Time Alt. Az. Time Alt. Az. Time Alt. Az.
04 Oct 5.3 19:42:52 10° NW 19:45:07 14° NNW 19:47:24 10° N visible
05 Oct 5.4 19:48:30 10° NW 19:50:00 11° NNW 19:51:29 10° N visible
06 Oct 5.5 21:35:48 10° N 21:36:00 10° N 21:36:00 10° N visible
07 Oct 5.5 21:39:25 10° N 21:40:10 11° N 21:40:10 11° N visible
08 Oct 5.4 21:43:27 10° N 21:44:19 12° N 21:44:19 12° N visible
09 Oct 5.4 21:47:33 10° NNW 21:48:28 13° N 21:48:28 13° N visible
10 Oct 5.4 21:51:41 10° NNW 21:52:36 14° N 21:52:36 14° N visible
11 Oct 5.2 20:17:57 10° N 20:19:02 11° NNE 20:20:07 10° NNE visible
11 Oct 5.4 21:55:50 10° NNW 21:56:45 15° NNW 21:56:45 15° NNW visible
12 Oct 5.0 20:21:47 10° N 20:23:44 13° NNE 20:24:37 12° NNE visible
12 Oct 5.4 22:00:01 10° NNW 22:00:54 15° NNW 22:00:54 15° NNW visible
13 Oct 4.7 20:25:45 10° NNW 20:28:23 16° NNE 20:28:47 15° NNE visible
13 Oct 5.5 22:04:13 10° NW 22:05:03 15° NNW 22:05:03 15° NNW visible
